FENGYUN 1C DEB, 29885

Orbit data source: Space-Track

FENGYUN 1C DEB, 29885 is space debris in SSO originally from a launch on Mon, 10 May 1999 UTC launched from the Taiyaun Space Center, China (TSC). Fengyun 1C debris stems from the Chinese weather satellite Fengyun-1C, which was intentionally destroyed by a Chinese anti-satellite missile in 2007. This event dramatically increased the amount of space debris, with thousands of trackable fragments posing hazards to satellites and human spaceflight. The Fengyun 1C debris cloud has become a focal point in discussions about space sustainability and the need for international regulations to prevent the creation of new debris.

Loading next visibility...
Identifier
29885, 1999-025GF
Orbit
SSO
Country
Flag of CNCN / PRC
Related business
Manufacturer
Unknown
Mission
Spacecraft
Bus & Motor
Unknown
Mass
Unknown
Launch date (UTC)
1999-05-10 (27 years ago)
Launch vehicle
Unknown
Launch site
Taiyaun Space Center, China (TSC)
Object type
Payload
Rocket body
Debris
Shape & HBR
Unknown shape, 0.1 m
Radar Cross Section
Small (<0.1 m²)

Expand to show TLE details & history
Last TLE update: 22 hours ago

TLE from 22 hours ago
0 FENGYUN 1C DEB
1 29885U 99025GF  25340.79689282  .00000420  00000-0  22806-3 0  9999
2 29885  98.3546 276.2183 0118017 181.3906 234.3634 14.13576627973730
Epoch: 2025-12-06T19:07Z
TLE epoch observation values (Epoch: 2025-12-06T19:07:31.539Z)
Latitude
53.91484°
Longitude
-98.0457°
Altitude
906.343 km
Speed
7.378 km/s
True Right ascension
17h 38m 37s
True Declination
53° 45' 16"
Sunlit
Object was in daylight at epoch
Visualization orbit readout
Latitude
Unknown
Longitude
Unknown
Altitude
Unknown
Speed
Unknown
Apparent Right ascension
Unknown
Apparent Declination
Unknown
Sunlit
N/A
Visualization observer readout
Local Sidereal Time
15:18:00
Azimuth
Unknown
Elevation
Unknown
Doppler factor
Unknown
Orbital elements
Apogee altitude
929.545 km
Perigee altitude
759.071 km
Semi-major axis
7,222.445 km
Eccentricity
0.0118
Inclination
98.3546°
RAAN
276.2183°
Arg. of periapsis
181.3906°
True anomaly
233.27372°
Mean anomaly
234.3634°
Eccentric anomaly
233.81762°
Mean motion
3.53604 °/min
Orbital period
101.81 mins
BSTAR
0.00022806
Loading maneuver chart data...
Computing Atmospheric mass density...

Documentation

Showing up to 5 results
|